Alma, MI

8:06 AM EDT on March 23, 2017 (GMT -0400)
Gratiot Community

Weather History for KAMN - November, 2013

Change the Weather History Date:

Tuesday, November 5, 2013

  Actual Average Record
Temperature  
Mean Temperature 52 °F -  
Max Temperature 59 °F 50 °F 73 °F (2015)
Min Temperature 45 °F 33 °F 12 °F (1951)
Degree Days  
Heating Degree Days 13    
Growing Degree Days 2 (Base 50)    
Moisture  
Dew Point 44 °F    
Average Humidity 74    
Maximum Humidity 83    
Minimum Humidity 60    
Precipitation  
Precipitation 0.00 in - - ()
Sea Level Pressure  
Sea Level Pressure 30.24 in    
Wind  
Wind Speed 7 mph (South)    
Max Wind Speed 12 mph    
Max Gust Speed -    
Visibility 10 miles    
Events      
Averages and records for this station are not official NWS values.
T = Trace of Precipitation, MM = Missing Value Source: NWS Daily Summary

Daily Weather History Graph

Daily Weather History Graph

Search for Another Location

Airport or City:

Trip Planner

Search our weather history database for the weather conditions in past years. The results will help you decide how hot, cold, wet, or windy it might be!

Date:

Astronomy

Nov. 05, 2013 Rise Set
Actual Time 7:19 AM EST 5:24 PM EST
Civil Twilight 6:49 AM EST 5:54 PM EST
Nautical Twilight 6:15 AM EST 6:28 PM EST
Astronomical Twilight 5:42 AM EST 7:01 PM EST
Moon 9:35 AM EST (11/5) 7:22 PM EST (11/5)
Length of Visible Light 11h 05m
Length of Day
10h 05m
Waxing Crescent, 6% of the Moon is Illuminated
Nov 5
Waxing Crescent
Nov 10
First Quarter
Nov 17
Full
Nov 25
Last Quarter
Dec 2
New

Hourly Weather History & Observations

Time (EST) Temp. Windchill Dew Point Humidity Pressure Visibility Wind Dir Wind Speed Gust Speed Precip Events Conditions
12:10 AM 45.7 °F 41.5 °F 34.9 °F 66% 30.24 in 10.0 mi South 8.1 mph - N/A   Overcast
12:30 AM 46.0 °F 41.9 °F 35.1 °F 66% 30.24 in 10.0 mi South 8.1 mph - N/A   Overcast
12:50 AM 46.4 °F 43.5 °F 35.6 °F 66% 30.24 in 10.0 mi South 5.8 mph - N/A   Overcast
1:10 AM 46.6 °F - 36.5 °F 68% 30.24 in 10.0 mi South 8.1 mph - N/A   Overcast
1:30 AM 47.1 °F - 37.0 °F 68% 30.24 in 10.0 mi South 6.9 mph - N/A   Overcast
1:53 AM 47.5 °F - 37.6 °F 69% 30.24 in 10.0 mi South 6.9 mph - N/A   Overcast
2:13 AM 47.5 °F - 38.3 °F 70% 30.24 in 10.0 mi South 8.1 mph - N/A   Overcast
2:33 AM 47.7 °F - 38.5 °F 70% 30.25 in 10.0 mi SSW 5.8 mph - N/A   Overcast
2:48 AM 47.7 °F - 38.8 °F 71% 30.24 in 10.0 mi South 5.8 mph - N/A   Overcast
3:10 AM 47.7 °F - 39.6 °F 73% 30.24 in 10.0 mi South 5.8 mph - N/A   Overcast
3:30 AM 47.8 °F - 40.1 °F 75% 30.24 in 10.0 mi South 4.6 mph - N/A   Overcast
3:50 AM 48.2 °F - 40.3 °F 74% 30.25 in 10.0 mi South 6.9 mph - N/A   Overcast
4:11 AM 48.2 °F - 40.8 °F 76% 30.25 in 10.0 mi South 5.8 mph - N/A   Overcast
4:31 AM 48.4 °F - 41.0 °F 76% 30.25 in 10.0 mi South 5.8 mph - N/A   Overcast
4:51 AM 48.4 °F - 41.4 °F 77% 30.26 in 10.0 mi South 4.6 mph - N/A   Overcast
5:11 AM 48.6 °F - 41.9 °F 78% 30.26 in 10.0 mi South 4.6 mph - N/A   Overcast
5:31 AM 48.7 °F - 42.1 °F 78% 30.26 in 10.0 mi South 5.8 mph - N/A   Overcast
5:51 AM 49.1 °F - 42.3 °F 77% 30.27 in 10.0 mi South 5.8 mph - N/A   Overcast
6:11 AM 48.9 °F - 42.4 °F 78% 30.27 in 10.0 mi South 8.1 mph - N/A   Overcast
6:31 AM 49.1 °F - 42.8 °F 79% 30.28 in 10.0 mi South 5.8 mph - N/A   Overcast
6:51 AM 49.1 °F - 42.8 °F 79% 30.28 in 10.0 mi South 6.9 mph - N/A   Overcast
7:11 AM 49.3 °F - 42.8 °F 78% 30.28 in 10.0 mi SSW 5.8 mph - N/A   Overcast
7:31 AM 49.3 °F - 42.8 °F 78% 30.29 in 10.0 mi SSW 5.8 mph - N/A   Overcast
7:52 AM 49.3 °F - 43.0 °F 79% 30.30 in 10.0 mi SSW 5.8 mph - N/A   Overcast
8:12 AM 49.5 °F - 43.3 °F 79% 30.30 in 10.0 mi South 4.6 mph - N/A   Overcast
8:32 AM 49.6 °F - 43.7 °F 80% 30.30 in 10.0 mi South 5.8 mph - N/A   Overcast
8:52 AM 50.2 °F - 43.9 °F 79% 30.30 in 10.0 mi SSW 4.6 mph - N/A   Overcast
9:12 AM 50.9 °F - 43.7 °F 76% 30.30 in 10.0 mi SSW 5.8 mph - N/A   Overcast
9:32 AM 51.1 °F - 44.2 °F 77% 30.30 in 10.0 mi South 6.9 mph - N/A   Overcast
9:52 AM 51.8 °F - 44.6 °F 76% 30.31 in 10.0 mi SSW 6.9 mph - N/A   Overcast
10:12 AM 51.8 °F - 44.2 °F 75% 30.31 in 10.0 mi South 6.9 mph - N/A   Overcast
10:32 AM 52.2 °F - 44.6 °F 75% 30.31 in 10.0 mi South 6.9 mph - N/A   Overcast
10:52 AM 53.1 °F - 45.0 °F 74% 30.30 in 10.0 mi SSW 5.8 mph - N/A   Overcast
11:13 AM 53.8 °F - 45.0 °F 72% 30.30 in 10.0 mi SSW 4.6 mph - N/A   Overcast
11:33 AM 54.5 °F - 45.1 °F 71% 30.31 in 10.0 mi WSW 5.8 mph - N/A   Overcast
11:53 AM 55.0 °F - 45.1 °F 69% 30.30 in 10.0 mi SSW 6.9 mph - N/A   Overcast
12:13 PM 56.5 °F - 46.2 °F 68% 30.30 in 10.0 mi SW 5.8 mph - N/A   Overcast
12:33 PM 58.5 °F - 46.2 °F 64% 30.29 in 10.0 mi South 9.2 mph - N/A   Overcast
12:53 PM 58.3 °F - 46.2 °F 64% 30.28 in 10.0 mi SSE 4.6 mph - N/A   Scattered Clouds
1:13 PM 59.2 °F - 46.2 °F 62% 30.27 in 10.0 mi South 9.2 mph - N/A   Clear
1:33 PM 59.4 °F - 46.0 °F 61% 30.27 in 10.0 mi South 8.1 mph - N/A   Scattered Clouds
1:53 PM 59.7 °F - 46.8 °F 62% 30.27 in 10.0 mi South 8.1 mph - N/A   Mostly Cloudy
2:14 PM 59.7 °F - 45.9 °F 60% 30.27 in 10.0 mi SW 6.9 mph - N/A   Overcast
2:34 PM 59.4 °F - 46.0 °F 61% 30.26 in 10.0 mi SSW 6.9 mph - N/A   Overcast
2:54 PM 59.0 °F - 46.8 °F 64% 30.25 in 10.0 mi SSE 8.1 mph - N/A   Mostly Cloudy
3:14 PM 59.2 °F - 46.9 °F 64% 30.25 in 10.0 mi South 10.4 mph - N/A   Clear
3:34 PM 57.9 °F - 46.4 °F 65% 30.25 in 10.0 mi South 6.9 mph - N/A   Clear
3:54 PM 57.2 °F - 45.5 °F 65% 30.25 in 10.0 mi South 11.5 mph - N/A   Scattered Clouds
4:14 PM 56.3 °F - 45.5 °F 67% 30.24 in 10.0 mi South 8.1 mph - N/A   Scattered Clouds
4:34 PM 55.9 °F - 45.7 °F 68% 30.24 in 10.0 mi South 8.1 mph - N/A   Mostly Cloudy
4:54 PM 55.6 °F - 45.7 °F 69% 30.24 in 10.0 mi South 8.1 mph - N/A   Overcast
5:14 PM 54.9 °F - 46.4 °F 73% 30.23 in 10.0 mi SSE 5.8 mph - N/A   Overcast
5:35 PM 54.5 °F - 46.6 °F 75% 30.23 in 10.0 mi SSE 6.9 mph - N/A   Overcast
5:55 PM 54.3 °F - 46.2 °F 74% 30.21 in 10.0 mi SSE 4.6 mph - N/A   Overcast
6:15 PM 53.8 °F - 46.4 °F 76% 30.22 in 10.0 mi SSE 8.1 mph - N/A   Overcast
6:35 PM 53.6 °F - 46.6 °F 77% 30.21 in 10.0 mi SSE 6.9 mph - N/A   Overcast
6:50 PM 53.6 °F - 46.6 °F 77% 30.22 in 10.0 mi SSE 9.2 mph - N/A   Overcast
7:10 PM 53.2 °F - 46.6 °F 78% 30.22 in 10.0 mi South 8.1 mph - N/A   Overcast
7:30 PM 52.9 °F - 46.6 °F 79% 30.21 in 10.0 mi South 6.9 mph - N/A   Overcast
7:50 PM 52.3 °F - 46.8 °F 81% 30.20 in 10.0 mi SSE 4.6 mph - N/A   Overcast
8:10 PM 52.3 °F - 46.8 °F 81% 30.19 in 10.0 mi SSE 4.6 mph - N/A   Mostly Cloudy
8:30 PM 51.8 °F - 46.8 °F 83% 30.19 in 10.0 mi South 5.8 mph - N/A   Scattered Clouds
8:51 PM 52.0 °F - 46.9 °F 83% 30.18 in 10.0 mi SSE 8.1 mph - N/A   Mostly Cloudy
9:11 PM 51.8 °F - 46.9 °F 83% 30.17 in 10.0 mi South 5.8 mph - N/A   Overcast
9:31 PM 51.8 °F - 46.8 °F 83% 30.16 in 10.0 mi South 6.9 mph - N/A   Overcast
9:51 PM 52.0 °F - 46.8 °F 82% 30.16 in 10.0 mi South 5.8 mph - N/A   Overcast
10:11 PM 52.0 °F - 46.8 °F 82% 30.15 in 10.0 mi SSE 6.9 mph - N/A   Overcast
10:31 PM 52.0 °F - 46.6 °F 82% 30.14 in 10.0 mi SSE 5.8 mph - N/A   Overcast
10:51 PM 52.0 °F - 46.4 °F 81% 30.13 in 10.0 mi South 6.9 mph - N/A   Overcast
11:11 PM 52.0 °F - 46.2 °F 81% 30.12 in 10.0 mi South 6.9 mph - N/A   Overcast
11:31 PM 52.2 °F - 45.9 °F 79% 30.11 in 10.0 mi SSE 9.2 mph - N/A   Overcast
11:51 PM 52.0 °F - 45.7 °F 79% 30.09 in 10.0 mi South 9.2 mph - N/A   Overcast